Simultaneous Nadir Overpasses (SNOs) Predictions

Prediction of SNOs between NOAA-20 and LANDSAT-9 Satellite Orbit:

Table of predicted SNOs for the next 14.0 days since TLE Epoch: 6/1/2024
Index Date (NOAA-20) Time (NOAA-20) Lat,Lon (NOAA-20) SZA (NOAA-20 ) Date (LANDSAT-9) Time (LANDSAT-9) Lat,Lon (LANDSAT-9) SZA (LANDSAT-9 ) Distance(km) Time Diff (sec)
1 06/02/2024 21:46:27 70.53,-150.91 48.14 06/02/2024 21:47:38 70.40,-150.30 47.99 27.00 71
2 06/02/2024 22:37:04 -70.18, 16.95 132.23 06/02/2024 22:37:10 -70.17, 17.01 132.24 2.36 6
3 06/02/2024 23:27:47 70.01,-175.49 47.60 06/02/2024 23:26:38 70.02,-175.57 47.61 2.94 69
4 06/05/2024 14:03:09 70.25, -34.68 47.55 06/05/2024 14:04:09 70.22, -34.69 47.51 3.05 60
5 06/05/2024 14:53:50 -70.11, 132.85 132.60 06/05/2024 14:53:39 -70.11, 132.79 132.60 2.40 11
6 06/05/2024 15:44:24 69.47, -58.89 46.73 06/05/2024 15:43:15 69.50, -60.40 46.82 58.96 69
7 06/08/2024 06:19:57 70.23, 81.13 47.28 06/08/2024 06:20:37 70.23, 81.21 47.27 2.84 40
8 06/08/2024 07:10:38 -70.10,-111.34 132.87 06/08/2024 07:10:07 -70.12,-111.32 132.84 2.77 31
9 06/10/2024 22:36:44 70.18,-162.99 47.02 06/10/2024 22:37:06 70.16,-163.02 47.00 2.60 22
10 06/10/2024 23:27:26 -70.09, 4.46 133.07 06/10/2024 23:26:35 -70.10, 4.54 133.06 3.23 51
11 06/13/2024 14:02:52 -70.50, 145.00 132.80 06/13/2024 14:04:04 -70.39, 145.55 132.93 24.06 72
12 06/13/2024 14:53:32 70.18, -47.20 46.87 06/13/2024 14:53:33 70.17, -47.13 46.85 3.13 1
13 06/13/2024 15:44:13 -70.04, 120.33 133.28 06/13/2024 15:43:03 -70.06, 120.36 133.25 2.28 70



Historial Predications of SNOs between NOAA-20 and LANDSAT-9
